Volver al catálogo

VELOX C1

ActivoCienciaVLEO
NORAD 41166·PAYLOAD·🇸🇬 Singapore

Lanzado Dec 16, 2015 desde Satish Dhawan Space Centre

Loading…

Próximos Pases (próximas 24 horas)

TLE

ActualizadoSource: Space-Track

Época: Sep 13, 2026, 22:42 UTC

1 41166U 15077A   26256.94586422  .00020625  00000-0  29770-3 0  9992
2 41166  14.9816 115.2321 0004073  88.7576 271.3216 15.53225843596537

Sigue VELOX C1 en tiempo real con AllMySat

Download on the App Store